Terminal Aerodrome Forecast
Issued by NWS

Home | Current Version | Previous Version | Text Only | Print | Product List | Glossary On
Versions: 1 2 3 4 5 6 7 8 9 10 11 12
000
FTUS44 KOUN 310520
TAFCSM
TAF
KCSM 310520Z 3106/0106 36011KT P6SM SKC
     FM311200 01015G20KT P6SM SKC
     FM010000 07007KT P6SM SKC=

USA.gov is the U.S. government's official web portal to all federal, state and local government web resources and services.